Regional Weather Roundup
Issued by NWS

Home | Current Version | Previous Version | Graphics & Text | Print | Product List | Glossary On
Versions: 1 2 3 4 5 6 7 8 9 10 11 12 13 14 15 16 17 18 19 20 21 22 23 24 25 26 27 28 29 30 31 32 33 34 35 36 37 38 39 40 41 42 43 44 45 46 47 48 49 50
000
ASUS43 KIND 031709
RWRIN

WEATHER ROUNDUP FOR INDIANA
NATIONAL WEATHER SERVICE INDIANAPOLIS IN
100 PM EDT MON AUG 03 2015

NOTE: "FAIR" INDICATES FEW OR NO CLOUDS BELOW 12,000 FEET WITH NO
SIGNIFICANT WEATHER AND/OR OBSTRUCTIONS TO VISIBILITY.

* - STATION DOES NOT REPORT WEATHER SUCH AS PRECIPITATION OR FOG.

+ - STATION NOT QUALITY CONTROLLED BY THE NATIONAL WEATHER SERVICE.
    USE DATA WITH CAUTION...ESPECIALLY DEWPOINT AND RELATIVE
    HUMIDITY OBSERVATIONS.

INZ001>003-010>013-019-020-031800-
NORTHWEST INDIANA

CITY           SKY/WX    TMP DP  RH WIND       PRES   REMARKS
GARY /AIRPORT/ MOSUNNY   77  61  57 NE10      29.86F
KNOX *+        SUNNY     77  63  61 NW10      29.85S
LA PORTE +     SUNNY     78  62  57 NW8G16    29.87S
MICHIGAN CITY+ SUNNY     73  64  73 NW9       29.87S
MONTICELLO +   SUNNY     79  66  64 NW10      29.85R
RENSSELAER +   MOSUNNY   81  68  65 W7        29.86S
VALPARAISO     SUNNY     77  59  53 NW8       29.87S

$$

LMZ046-743>745-031800-
SOUTHERN LAKE MICHIGAN

STATION/POSITION TIME  TEMP    WIND        PRES    WAVE
                       AIR SEA DIR/SP/G            HT
                 (UTC) (F)     (DEG/KT/KT) (MB)    (FT)
BURNS HARBOR     1600   71     340/  7/ 10 1011.9R
MICHIGAN CITY    1600   71     300/  9/ 10   N/A
5NW MICH CITY    1700   71 74  330/ 10/ 12   N/A     3

$$

INZ004-005-014>016-021>024-031800-
NORTH CENTRAL INDIANA

CITY           SKY/WX    TMP DP  RH WIND       PRES   REMARKS
ELKHART        MOSUNNY   79  59  50 NW12      29.85R
GOSHEN         MOSUNNY   79  66  64 W15       29.84S
LOGANSPORT +   SUNNY     79  59  50 NW5       29.86R
PERU/GRISSOM   SUNNY     80  65  61 NW8       29.84S
ROCHESTER +    SUNNY     82  66  57 W9        29.85S
SOUTH BEND     SUNNY     79  60  52 NW15      29.85S
WARSAW +       MOSUNNY   77  64  65 W12       29.85S

$$

INZ006>009-017-018-025>027-031800-
NORTHEAST INDIANA

CITY           SKY/WX    TMP DP  RH WIND       PRES   REMARKS
ANGOLA *+      MOSUNNY   79  66  65 W6        29.83S
AUBURN +       SUNNY     77  63  61 W6        29.85S
FORT WAYNE     MOSUNNY   79  67  66 W9        29.85S
HUNTINGTON +   MOSUNNY   77  66  69 W3        29.84S

$$

INZ028-029-035-036-043>045-051>053-031800-
WEST CENTRAL INDIANA

CITY           SKY/WX    TMP DP  RH WIND       PRES   REMARKS
CRAWFORDSVL +  MOSUNNY   82  68  63 W9          N/A
GREENCASTLE +  MOSUNNY   84  64  51 W5        29.86S
LAFAYETTE      SUNNY     82  65  56 NW9       29.84R
TERRE HAUTE    MOSUNNY   87  69  54 W8        29.85S

$$

INZ030>032-037>040-046>048-054>057-064-065-031800-
CENTRAL INDIANA

CITY           SKY/WX    TMP DP  RH WIND       PRES   REMARKS
FISHERS *+     PTSUNNY   82  75  78 SW6       29.84F
FRANKFORT +    PTSUNNY   83  73  70 W8        29.86S
GREENWOOD *+   SUNNY     82  68  61 SW9       29.86F
INDIANAPOLIS   PTSUNNY   85  70  60 SW13      29.84S
-EAGLE CREEK   PTSUNNY   84  70  62 W7        29.84S
KOKOMO *+      MOSUNNY   81  66  61 NW13      29.84S
MARION +       PTSUNNY   78  71  79 SW6       29.85S
MT COMFORT *+  SUNNY     81  70  69 S13       29.86S
SHELBYVILLE    PTSUNNY   81  68  64 S10       29.86F
ZIONSVILLE +   PTSUNNY   83  71  66 W9        29.86S

$$

INZ033-034-041-042-049-050-058-059-031800-
EAST CENTRAL INDIANA

CITY           SKY/WX    TMP DP  RH WIND       PRES   REMARKS
MUNCIE         CLOUDY    75  68  78 SW10      29.86R

$$

INZ060-061-067>069-081>083-085>088-031800-
SOUTHWEST INDIANA

CITY           SKY/WX    TMP DP  RH WIND       PRES   REMARKS
EVANSVILLE     SUNNY     90  68  48 VRB7      29.89R
HUNTINGBURG *+ SUNNY     88  72  58 W9        29.89S
WASHINGTON +   SUNNY     87  65  48 W6        29.87S

$$

INZ062-063-066-070>080-084-089>092-031800-
SOUTH CENTRAL AND SOUTHEAST INDIANA

CITY           SKY/WX    TMP DP  RH WIND       PRES   REMARKS
BLOOMINGTON    MOSUNNY   85  70  60 SW9       29.87S
MADISON *+     SUNNY     81  63  54 SW10G17   29.91F
NORTH VERNON + SUNNY     82  64  54 S14       29.89F
SEYMOUR +      SUNNY     82  68  61 S9G16     29.88S

$$




USA.gov is the U.S. government's official web portal to all federal, state and local government web resources and services.